Probability
22 27 33 37 41 46 48 46 46 44 37 30 25 21 19 18 17 19 24 23 20 17 14 14 16 13 9 9 11 11 7 4 5 5 4 2 2 4 6 6 5 3 3
26 30 35 38 41 45 47 47 46 44 38 33 28 24 22 22 21 21 23 21 18 18 16 17 18 15 11 11 12 11 7 4 4 5 4 2 2 3 4 4 4 3 3
31 32 36 40 43 46 46 47 48 45 39 35 30 26 26 26 25 24 22 19 16 16 18 21 22 20 18 15 12 11 9 6 5 6 4 2 2 2 2 1 1 1 1
32 31 34 40 43 45 46 48 50 48 42 37 33 30 29 29 28 26 24 21 16 15 19 23 25 25 25 21 15 13 12 9 7 7 5 3 2 2 1 1 1 2 2
29 30 34 39 41 42 44 48 50 48 45 40 37 32 30 30 30 30 28 25 21 18 19 22 25 27 27 25 20 17 15 12 10 8 5 3 3 2 1 2 3 4 4
27 31 37 40 38 36 39 44 48 48 45 41 37 33 30 31 32 32 31 28 26 23 21 21 22 24 25 24 22 19 17 16 13 9 7 5 3 2 1 2 3 4 5
26 32 41 43 38 34 37 42 47 47 44 40 37 33 31 31 32 31 28 27 26 26 24 21 20 21 22 21 20 18 18 18 15 11 10 8 4 2 1 1 1 2 4
21 28 39 44 41 38 39 43 45 44 42 39 37 35 33 30 28 27 26 25 24 24 25 23 21 21 21 19 18 17 17 17 15 12 11 10 6 3 2 0 0 1 2
18 23 33 39 39 38 40 43 43 41 39 38 37 34 31 27 24 24 25 26 24 23 24 25 25 24 21 19 18 17 16 16 15 13 13 11 7 4 3 1 1 1 1
19 23 28 32 32 32 36 41 41 39 37 35 34 30 26 24 21 21 25 26 23 22 24 27 27 25 23 20 19 18 16 14 14 14 13 11 6 4 5 4 3 3 1
22 23 25 26 27 27 32 37 38 36 33 32 31 28 26 25 22 22 24 24 22 21 23 25 26 26 25 24 22 20 17 15 14 13 12 9 6 5 6 6 4 2 1
23 24 25 27 28 29 31 34 34 32 29 30 31 32 31 30 28 26 25 23 22 21 21 22 24 25 27 27 26 23 20 17 16 14 12 10 8 8 7 6 4 2 1
25 26 28 31 32 32 33 34 32 30 27 28 32 34 35 34 32 30 27 24 22 22 21 21 22 24 26 28 27 25 22 20 19 18 15 13 12 11 8 6 4 2 1
28 29 32 33 33 33 34 35 33 31 28 28 31 33 34 33 32 31 28 24 23 22 22 22 22 23 25 25 24 24 22 21 20 20 19 16 13 11 8 6 5 5 3
31 34 35 34 33 32 32 34 35 33 31 30 30 30 29 29 30 29 26 23 20 19 20 20 21 22 22 21 21 21 21 21 20 19 18 15 10 7 5 5 6 6 5
35 37 36 34 33 32 30 32 33 32 30 28 28 27 26 26 27 27 24 21 18 16 16 15 16 17 16 15 14 16 18 20 18 17 16 13 8 4 2 2 3 4 3
39 39 37 35 34 31 28 28 29 28 25 23 24 24 25 26 26 25 22 20 19 17 15 13 12 13 12 8 7 9 14 16 16 15 15 11 7 4 3 2 1 1 0
39 38 36 34 31 29 26 24 23 23 21 20 20 21 23 24 25 24 21 20 21 20 17 15 14 13 10 5 2 3 8 12 13 14 14 11 8 6 5 4 3 2 1
35 34 33 30 27 25 24 22 21 21 21 20 20 20 20 21 23 24 22 21 21 20 19 18 17 14 10 4 1 2 6 10 12 13 12 9 7 5 4 5 6 5 4
29 28 27 25 23 22 22 22 21 22 22 22 21 20 20 20 21 22 22 22 21 21 20 20 18 15 10 4 1 2 6 10 12 12 10 6 4 2 2 5 8 8 7
25 24 23 21 20 20 21 22 23 24 24 23 22 22 21 20 20 20 20 20 21 21 20 19 17 15 11 6 1 1 5 9 11 11 8 5 2 1 1 3 6 6 6
21 21 20 20 19 19 20 22 23 25 24 23 22 22 22 22 21 21 20 19 19 19 18 17 15 14 13 8 3 1 2 6 9 9 7 4 2 1 0 1 2 2 2
17 18 18 19 18 18 18 20 21 22 22 22 22 22 21 21 21 20 19 18 18 17 15 14 13 13 13 10 4 1 0 2 5 6 6 4 2 1 0 0 0 0 0
15 16 16 16 16 15 15 16 17 18 20 21 21 20 18 18 18 17 16 16 16 15 13 11 10 10 10 9 5 2 1 1 2 4 4 3 1 0 0 0 0 0 0
13 14 14 13 12 12 12 12 14 16 17 18 18 17 16 17 16 14 12 11 11 10 8 7 6 7 6 6 5 3 2 2 2 3 3 3 1 1 2 1 0 0 0
12 13 12 10 9 10 10 11 13 14 15 15 15 14 15 16 16 14 11 8 6 5 3 3 4 4 4 4 4 3 2 2 2 2 3 3 2 3 4 2 1 0 0
Wind_Speed
8 8 8 8 7 5 6 5 5 5 4 3 3 3 2 2 2 2 3 3 3 2 1 0 1 1 1 1 1 1 1 2 1 1 2 2 2 2 2 2 2 2 2
8 8 9 8 8 6 5 6 6 6 5 3 2 2 2 2 2 2 3 3 3 3 3 2 2 2 2 2 1 1 1 2 1 1 1 1 1 1 2 2 3 3 2
9 9 9 8 9 8 7 6 6 6 5 4 3 2 2 2 2 2 2 2 3 3 2 2 2 2 2 2 2 2 2 2 2 1 1 0 0 1 0 2 2 2 2
9 9 10 9 9 9 8 6 6 6 5 4 4 4 3 3 2 2 2 2 2 2 3 2 2 2 1 1 2 2 2 2 2 1 1 1 1 1 0 1 1 2 2
8 9 9 10 9 9 8 7 6 5 5 3 3 3 3 3 2 2 2 2 2 2 2 2 1 1 1 1 1 1 1 1 2 1 1 2 1 2 1 1 1 1 1
8 8 8 9 8 7 8 8 7 5 5 4 3 2 2 1 1 1 2 2 2 2 3 2 2 1 1 1 1 1 2 2 2 1 2 2 1 1 1 1 1 1 2
7 8 8 8 8 7 7 7 8 6 5 5 4 2 1 1 2 2 2 2 2 2 2 2 1 1 1 1 1 2 2 2 2 2 2 2 2 1 1 1 1 2 1
6 7 8 7 7 7 6 7 7 6 5 5 4 3 2 2 1 1 1 2 1 1 2 2 2 2 1 1 1 1 2 1 1 3 2 2 2 1 1 1 1 1 1
7 7 8 7 6 7 6 6 6 5 5 4 3 3 3 2 1 2 1 1 0 1 2 2 1 1 1 1 1 1 1 1 1 1 1 2 2 1 2 1 1 1 1
7 7 7 7 5 6 5 6 6 5 4 3 3 3 2 2 1 1 1 1 0 1 1 1 1 1 1 2 2 1 1 1 1 1 1 1 2 2 2 1 1 1 1
7 7 7 7 6 5 6 5 5 5 5 4 3 2 2 1 1 1 1 1 0 0 0 1 1 1 2 2 2 2 2 2 1 2 2 1 2 2 2 2 1 1 0
7 7 6 6 6 5 5 5 5 5 4 4 3 2 1 1 1 1 1 0 0 1 1 1 1 2 2 2 2 2 2 2 1 1 1 1 2 1 2 2 2 1 1
7 7 7 6 5 4 4 4 4 3 3 4 4 3 2 1 1 1 1 0 0 1 1 1 1 2 2 2 2 2 2 2 2 2 2 2 2 2 1 2 2 2 2
6 7 7 6 6 5 4 4 3 3 3 4 4 3 2 1 1 1 1 0 1 1 1 2 2 2 2 2 2 2 2 2 2 2 2 2 2 2 2 2 2 1 1
6 6 6 6 5 5 4 3 3 3 3 3 3 2 2 1 1 1 1 0 1 1 1 2 2 2 2 1 1 2 3 3 3 2 2 1 1 2 1 2 1 1 1
5 6 6 5 4 4 3 3 2 3 3 3 3 2 2 1 1 1 1 0 1 2 2 2 2 2 2 2 2 2 2 2 2 2 2 2 3 2 3 3 2 1 2
4 5 5 4 3 3 3 3 2 3 3 2 2 2 2 2 1 1 1 1 1 1 1 1 1 1 2 2 2 2 2 2 2 2 2 3 2 1 1 2 3 3 3
4 4 4 4 4 3 3 2 2 3 3 3 2 2 2 1 1 1 1 0 1 1 1 1 1 1 1 2 2 3 3 2 2 2 2 2 1 1 1 2 2 2 2
4 4 4 3 3 3 3 2 2 2 2 2 2 2 1 1 1 1 1 1 1 1 2 2 1 1 0 1 1 2 2 2 2 2 1 1 1 1 1 2 2 2 3
4 4 4 4 4 3 3 2 2 1 1 1 1 1 1 0 1 1 1 1 2 2 2 1 1 1 1 2 2 1 2 1 2 1 0 0 1 1 1 2 3 3 3
4 5 4 4 3 2 2 2 2 1 0 1 1 1 1 1 1 1 1 2 2 2 2 2 2 2 2 3 3 2 2 2 2 2 1 1 1 1 2 2 2 3 3
3 4 4 4 3 3 2 2 1 0 0 0 0 0 1 2 1 1 2 2 3 3 3 3 3 2 3 3 4 4 4 4 3 2 1 0 1 2 3 3 4 4 4
2 3 3 4 3 2 2 2 1 0 0 0 1 1 1 2 2 2 2 3 3 3 3 2 2 2 2 2 3 5 5 5 3 2 2 2 3 3 4 5 5 4 3
2 2 3 2 2 2 2 1 1 1 1 1 1 1 1 2 1 2 2 2 2 2 2 2 2 1 0 1 0 1 2 2 3 2 2 2 3 4 4 3 4 4 3
1 1 2 2 2 2 2 2 1 1 1 1 2 2 2 2 1 1 2 2 2 2 2 2 2 2 1 1 1 1 1 1 1 2 2 2 2 2 2 2 2 3 3
1 1 2 2 2 2 2 2 2 2 2 2 2 2 2 2 2 2 1 1 2 2 2 2 2 2 2 3 3 3 3 3 2 1 2 2 2 3 3 3 2 2 2
Wind_Direction
165 148 138 137 135 138 146 153 156 149 151 159 175 179 178 180 178 158 141 152 164 157 179 236 160 206 182 205 226 269 281 266 259 283 299 274 226 206 172 173 161 171 162
160 146 142 143 146 155 155 156 157 153 164 166 174 183 178 183 177 160 147 167 173 173 188 193 200 188 194 208 224 193 281 283 264 240 293 292 268 259 196 182 181 180 171
160 155 155 153 154 155 164 163 155 155 168 166 174 186 159 193 178 150 145 179 179 183 207 180 206 191 215 194 205 209 224 264 288 238 221 252 332 307 243 238 204 170 173
164 165 162 159 157 158 158 151 150 150 160 169 180 185 180 189 180 165 162 180 190 189 187 189 190 191 222 192 215 191 240 246 273 286 250 229 176 213 265 266 225 199 184
169 165 160 155 155 157 156 153 146 149 155 166 175 187 189 183 173 158 156 174 176 191 197 187 178 184 226 214 208 129 251 277 269 286 297 273 228 223 201 249 254 241 198
163 151 148 147 150 149 146 145 140 140 146 160 165 167 173 161 165 165 164 180 183 193 199 188 166 185 218 212 188 189 227 246 272 282 288 294 273 259 219 239 238 235 228
146 141 142 145 145 144 144 143 142 146 150 155 158 164 194 175 183 213 187 192 201 181 161 166 151 189 211 206 188 189 231 245 253 257 264 282 284 281 255 254 259 252 240
138 140 140 141 144 141 137 137 141 144 146 150 160 168 187 203 187 194 214 195 210 162 151 168 175 189 204 203 172 196 215 221 242 262 268 276 279 281 269 249 253 276 260
135 136 133 136 140 135 131 134 134 135 141 147 155 167 180 191 198 178 187 178 182 182 136 163 176 179 192 203 190 210 229 218 222 264 286 291 286 277 279 272 244 221 252
136 127 128 130 134 134 131 131 136 141 142 145 161 161 169 185 195 186 151 135 70 27 104 167 181 185 199 205 195 209 221 231 218 224 244 274 297 301 295 278 270 243 226
136 126 122 127 128 134 141 141 140 143 144 147 147 130 153 176 179 174 170 147 142 164 107 224 210 207 209 204 197 215 217 220 230 248 242 227 264 308 312 310 302 295 247
134 127 122 122 122 123 130 131 134 136 142 133 123 121 119 104 109 143 122 88 291 280 243 222 218 227 213 210 210 219 228 231 232 246 272 255 253 262 286 300 297 302 278
131 129 123 116 113 109 108 115 113 121 124 117 119 119 112 97 86 63 77 303 293 285 286 277 259 257 246 227 218 221 229 236 240 233 251 267 270 266 264 282 292 296 295
131 131 128 123 120 116 110 111 111 115 111 108 118 119 114 113 109 98 74 27 292 266 278 279 272 268 268 255 244 239 240 236 237 233 233 254 266 266 266 259 272 293 313
139 131 126 122 124 121 112 110 121 113 111 114 119 127 148 154 142 135 119 67 323 314 313 301 288 278 262 276 296 261 245 243 238 243 236 250 275 279 270 275 302 297 285
138 129 125 120 122 125 129 119 117 114 116 120 127 127 128 119 132 143 127 105 5 347 338 320 320 303 298 12 16 315 274 262 247 252 246 228 230 219 208 214 225 233 246
114 119 121 118 118 117 111 121 127 124 128 121 113 109 109 94 75 90 86 42 352 342 326 324 337 326 5 8 344 314 280 255 244 249 254 257 244 216 226 207 218 232 239
105 108 114 116 119 118 122 122 135 139 133 123 113 108 111 100 73 64 51 8 304 287 286 279 269 284 25 30 359 321 268 256 242 234 240 240 257 290 307 258 238 236 244
106 105 109 110 104 109 119 121 127 125 127 123 112 98 81 71 49 30 0 321 304 288 268 257 241 179 134 314 326 326 281 270 266 252 250 226 192 237 283 271 259 252 260
112 111 109 104 99 93 107 121 122 116 116 109 101 84 59 58 7 338 319 307 285 269 262 253 237 201 186 224 252 288 294 290 284 262 156 77 188 245 263 258 260 255 265
105 114 113 111 109 106 103 107 99 87 54 64 67 47 320 284 255 299 306 289 273 263 258 254 247 219 198 196 216 212 284 293 295 276 248 179 136 207 242 257 259 254 280
99 117 120 115 113 114 122 126 114 247 211 159 301 337 313 293 275 273 285 286 280 265 244 233 238 231 200 194 208 219 244 281 285 293 303 350 207 253 262 262 265 277 284
111 122 124 128 133 137 142 164 163 243 218 212 257 271 293 305 301 285 276 264 256 259 257 240 236 225 188 175 200 225 246 267 287 317 340 308 263 263 260 250 253 262 261
103 124 140 145 142 151 168 184 187 212 204 241 258 259 250 257 266 286 287 288 299 300 309 299 290 278 115 80 129 242 251 275 279 297 300 259 255 262 259 253 244 237 244
120 157 164 169 189 183 186 211 194 188 202 233 261 267 259 251 258 264 287 290 304 297 292 304 313 316 305 273 252 262 280 292 310 313 291 266 253 254 251 245 241 238 238
141 204 204 203 210 203 192 206 210 208 215 244 259 270 279 271 260 255 264 306 278 247 237 246 266 276 242 212 223 234 241 241 237 252 261 255 254 257 256 248 245 246 251